date,time,DOY,Ta_1_1_1,Pa_1_1_1,RH_1_1_1,LWin_1_1_1,LWout_1_1_1,SWin_1_1_1,SWout_1_1_1,PPFD_1_1_1,MWS_1_1_1,WD_1_1_1,SWC_1_1_1,Ts_1_1_1
[yyyy-mm-dd],[HH:MM],[ddd.ddd],[K],[Pa],[%],[W+1m-2],[W+1m-2],[W+1m-2],[W+1m-2],[µmol+1m-2s-1],[m+1s-1],[deg],[m+3m-3],[K]
2018-03-06,00:30,65.020,270.56900000000007,94607.633333333331,27.468333333333341,301.03833333333330,272.74700000000001,0.21166666666666661,-1.5133333333333330,0.22233333333333333,5.6499999999999995,70.254999999999981,0.24000000000000016,273.21333333333337
2018-03-06,01:00,65.041,270.41566666666665,94643.033333333340,28.231666666666666,300.58666666666676,275.41933333333333,0.22333333333333341,-1.4713333333333334,0.0000000000000000,5.6600000000000001,77.611666666666679,0.24000000000000016,273.21300000000002
2018-03-06,01:30,65.062,270.29933333333344,94654.633333333331,27.405999999999995,300.07099999999997,275.13066666666674,0.21866666666666670,-1.4483333333333337,3.00000000000000006E-003,5.2000000000000002,77.434333333333328,0.24000000000000016,273.21266666666662
2018-03-06,02:00,65.083,270.16900000000021,94667.199999999997,26.639666666666667,299.46266666666668,274.22500000000008,0.18533333333333338,-1.4846666666666664,1.00000000000000002E-003,5.3033333333333319,81.810999999999993,0.24000000000000016,273.21566666666661
2018-03-06,02:30,65.104,269.99866666666674,94658.533333333340,27.575333333333329,298.67566666666664,272.89366666666660,0.19933333333333328,-1.4630000000000001,-9.00000000000000105E-003,5.7966666666666660,73.179000000000016,0.24000000000000016,273.21633333333341
2018-03-06,03:00,65.124,269.73333333333329,94633.266666666663,29.440999999999995,297.61233333333337,268.12466666666666,0.19933333333333333,-1.6893333333333331,-4.33333333333333313E-003,5.1166666666666680,75.254333333333307,0.24000000000000016,273.21666666666664
2018-03-06,03:30,65.145,269.51200000000000,94607.033333333340,31.843666666666664,296.91733333333337,271.23566666666676,0.18700000000000003,-1.5126666666666670,-1.00000000000000002E-003,5.3700000000000001,64.733000000000004,0.24000000000000016,273.21466666666674
2018-03-06,04:00,65.166,269.30566666666681,94582.600000000006,34.814333333333330,296.27599999999995,271.22466666666668,0.20500000000000007,-1.4810000000000010,-8.00000000000000017E-003,5.0566666666666675,67.210999999999999,0.24000000000000016,273.21533333333338
2018-03-06,04:30,65.187,269.21233333333333,94537.866666666669,38.181333333333328,295.99766666666670,272.89499999999992,0.19400000000000003,-1.3316666666666666,-3.00000000000000006E-003,5.9600000000000000,62.033333333333339,0.24000000000000016,273.21966666666668
2018-03-06,05:00,65.208,269.07333333333349,94478.266666666663,42.630333333333326,295.59366666666665,272.49799999999993,0.17133333333333339,-1.3346666666666667,4.33333333333333313E-003,6.1333333333333337,56.523333333333341,0.24000000000000016,273.21166666666670
2018-03-06,05:30,65.229,268.96233333333333,94461.533333333340,48.186333333333323,295.20666666666676,269.80666666666667,0.23400000000000004,-1.4340000000000002,-3.33333333333333311E-003,5.4066666666666663,62.510999999999996,0.24000000000000016,273.21866666666671
2018-03-06,06:00,65.249,268.84333333333331,94439.933333333334,52.841999999999992,294.84266666666673,268.19900000000001,0.28333333333333327,-1.5220000000000005,3.00000000000000006E-003,4.9866666666666672,75.289666666666690,0.24000000000000016,273.21633333333347
2018-03-06,06:30,65.270,268.76000000000016,94398.966666666660,57.014000000000003,294.62566666666669,267.60400000000004,0.28399999999999997,-1.5186666666666668,4.00000000000000008E-003,5.2366666666666664,67.244666666666674,0.24000000000000016,273.21766666666662
2018-03-06,07:00,65.291,268.69333333333327,94381.066666666666,58.963000000000008,294.43866666666679,267.92000000000002,0.29666666666666669,-1.5050000000000003,1.00000000000000002E-003,4.9966666666666679,69.033000000000001,0.24000000000000016,273.21833333333336
2018-03-06,07:30,65.312,268.74133333333344,94360.166666666672,58.420666666666655,294.54433333333327,268.62666666666667,0.29666666666666669,-1.4663333333333335,-4.00000000000000182E-003,4.9566666666666661,68.121666666666655,0.24000000000000016,273.21633333333341
2018-03-06,08:00,65.333,268.68866666666662,94313.633333333331,58.121333333333340,294.43000000000006,268.78033333333332,0.30666666666666670,-1.4679999999999997,-6.00000000000000012E-003,4.8066666666666666,67.477666666666678,0.24000000000000016,273.21366666666671
2018-03-06,08:30,65.354,268.67466666666661,94262.566666666666,59.082666666666675,294.11466666666661,264.16466666666662,0.25766666666666665,-1.6266666666666665,1.33333333333333342E-002,5.1133333333333342,65.310333333333332,0.24000000000000016,273.21633333333335
2018-03-06,09:00,65.374,268.52133333333336,94224.266666666663,61.361666666666657,293.38533333333345,261.13133333333332,0.30066666666666664,-1.7503333333333333,5.00000000000000010E-003,5.2933333333333330,63.177666666666674,0.24000000000000016,273.21866666666671
2018-03-06,09:30,65.395,268.38133333333320,94205.566666666666,63.891999999999989,293.06566666666669,263.33633333333330,0.30266666666666669,-1.6076666666666666,2.00000000000000004E-003,4.7766666666666664,62.910666666666671,0.24000000000000016,273.21400000000006
2018-03-06,10:00,65.416,268.22900000000004,94180.333333333328,65.289333333333332,293.24466666666672,277.18400000000003,0.17233333333333337,-0.89966666666666650,8.66666666666666627E-003,5.5333333333333341,51.911333333333332,0.24000000000000016,273.21833333333331
2018-03-06,10:30,65.437,268.12100000000015,94162.000000000000,66.934000000000012,293.04100000000000,277.24866666666668,0.14266666666666669,-0.81199999999999994,-2.00000000000000004E-003,6.2566666666666668,47.465999999999994,0.24000000000000016,273.21900000000011
2018-03-06,11:00,65.458,267.93133333333327,94148.866666666669,68.756333333333345,292.09266666666667,270.85533333333336,0.16566666666666668,-1.0929999999999997,4.66666666666666705E-003,5.4866666666666664,64.321999999999989,0.24000000000000016,273.21866666666676
2018-03-06,11:30,65.479,267.73433333333338,94146.033333333340,69.561000000000007,291.50566666666668,274.49433333333332,0.14800000000000008,-0.89299999999999957,2.00000000000000004E-003,6.1066666666666656,56.445000000000014,0.24000000000000016,273.21766666666667
2018-03-06,12:00,65.499,267.60800000000012,94155.800000000003,70.686999999999998,290.95099999999996,274.17033333333330,0.17299999999999999,-0.88266666666666682,1.60000000000000003E-002,5.9000000000000004,56.611000000000004,0.24000000000000016,273.21600000000007
2018-03-06,12:30,65.520,267.33100000000013,94168.033333333340,71.372999999999990,290.16133333333323,276.94033333333329,0.21566666666666670,-8.76666666666667260E-002,1.3646666666666667,6.1266666666666660,48.189666666666668,0.24000000000000016,273.21333333333342
2018-03-06,13:00,65.541,267.16533333333331,94192.300000000003,71.829999999999984,289.66533333333342,278.44766666666669,2.1513333333333331,9.7680000000000007,19.938333333333333,6.0300000000000002,55.832333333333310,0.24000000000000016,273.22000000000003
2018-03-06,13:30,65.562,267.15999999999991,94222.533333333340,71.237000000000009,289.86633333333339,281.16166666666669,3.6343333333333327,17.420666666666666,37.353333333333332,5.4566666666666661,79.745333333333335,0.24000000000000016,273.21333333333331
2018-03-06,14:00,65.583,267.24900000000014,94231.366666666669,70.480333333333363,290.47233333333332,281.60066666666660,5.7553333333333336,28.346000000000000,62.458666666666673,5.9666666666666668,69.843333333333320,0.24000000000000016,273.21766666666667
2018-03-06,14:30,65.604,267.33999999999986,94228.866666666669,71.291666666666671,291.00800000000010,282.32933333333324,7.7206666666666672,38.568999999999996,86.260333333333321,5.4500000000000020,70.888999999999996,0.24000000000000016,273.21933333333334
2018-03-06,15:00,65.624,267.41100000000012,94232.300000000003,72.167333333333346,291.84933333333339,282.18400000000008,11.609666666666669,59.613666666666667,132.32766666666669,4.5733333333333333,98.299666666666681,0.24000000000000016,273.21800000000002
2018-03-06,15:30,65.645,267.83600000000007,94222.833333333328,71.891000000000005,294.78833333333336,277.03166666666669,33.784333333333329,177.50399999999999,362.26566666666673,5.7333333333333343,87.787999999999997,0.24000000000000016,273.21866666666676
2018-03-06,16:00,65.666,268.69499999999999,94214.733333333337,68.760999999999996,302.58566666666667,281.72566666666660,78.584666666666664,428.70133333333331,839.99066666666681,6.1433333333333335,89.899666666666661,0.24000000000000016,273.21533333333338
2018-03-06,16:30,65.687,269.28433333333339,94199.966666666660,65.036000000000001,304.44366666666673,281.80500000000006,59.634000000000000,318.77899999999994,637.98766666666666,5.5999999999999996,111.85466666666666,0.24000000000000016,273.21666666666675
2018-03-06,17:00,65.708,269.95466666666670,94176.066666666666,58.598666666666666,304.23933333333326,278.96233333333345,36.388333333333328,194.88100000000000,405.06666666666661,7.2366666666666681,108.27800000000001,0.24000000000000016,273.21733333333356
2018-03-06,17:30,65.729,270.57266666666675,94174.066666666666,52.306333333333335,307.37966666666671,288.26966666666669,52.943999999999996,276.77833333333331,571.02933333333340,6.5700000000000021,116.49966666666666,0.24000000000000016,273.21466666666669
2018-03-06,18:00,65.749,270.25966666666665,94173.933333333334,56.175333333333342,307.78099999999995,289.73233333333332,64.496333333333340,336.14200000000000,680.02866666666671,8.1166666666666654,158.27733333333333,0.24000000000000016,273.21700000000016
2018-03-06,18:30,65.770,269.88700000000006,94174.966666666660,59.143333333333345,306.23333333333341,290.64233333333340,61.260333333333328,315.43299999999999,645.74599999999998,7.9399999999999995,151.11166666666665,0.24000000000000016,273.21633333333335
2018-03-06,19:00,65.791,269.76033333333339,94168.399999999994,59.928999999999988,304.76133333333343,289.42366666666663,44.594999999999999,230.00266666666670,480.58033333333339,8.1566666666666681,221.62233333333333,0.24000000000000016,273.21733333333339
2018-03-06,19:30,65.812,269.33400000000000,94151.300000000003,65.756333333333316,304.88966666666664,288.56366666666668,69.696000000000012,364.80333333333340,738.45666666666671,7.8133333333333335,236.41200000000001,0.24000000000000016,273.21899999999999
2018-03-06,20:00,65.833,269.25500000000000,94155.533333333340,64.272666666666680,304.25733333333335,282.28466666666662,64.597333333333339,345.16799999999995,692.91066666666666,8.2266666666666648,271.74500000000000,0.24000000000000016,273.21800000000007
2018-03-06,20:30,65.854,269.29866666666675,94174.300000000003,60.933999999999997,304.92633333333328,279.97333333333330,68.335333333333338,374.84199999999993,745.37099999999987,7.8766666666666660,310.35566666666665,0.24000000000000016,273.21666666666664
2018-03-06,21:00,65.874,269.44766666666669,94174.833333333328,57.485333333333344,305.38066666666663,250.31666666666669,74.738666666666660,454.61833333333317,892.92333333333329,8.0833333333333339,270.90066666666667,0.24000000000000016,273.21900000000005
2018-03-06,21:30,65.895,269.42766666666671,94185.100000000006,59.784999999999989,303.60633333333328,277.67533333333336,42.769999999999996,243.15733333333324,483.28266666666673,8.1799999999999997,278.91133333333335,0.24000000000000016,273.21733333333339
2018-03-06,22:00,65.916,268.46600000000001,94216.866666666669,70.967333333333329,298.26833333333337,285.97433333333339,25.540666666666670,129.51933333333335,262.74033333333330,8.1666666666666661,325.76666666666665,0.24000000000000016,273.21766666666667
2018-03-06,22:30,65.937,268.03733333333332,94257.233333333337,72.171333333333351,295.60999999999990,284.65400000000005,13.567666666666668,68.445666666666682,139.88000000000002,7.3266666666666671,294.68833333333333,0.24000000000000016,273.21933333333334
2018-03-06,23:00,65.958,266.75000000000006,94317.566666666666,78.686333333333323,290.14633333333330,282.10433333333339,5.4866666666666646,28.038666666666664,59.404666666666657,7.7266666666666648,329.22333333333336,0.24000000000000016,273.22033333333337
2018-03-06,23:30,65.979,265.99866666666668,94366.966666666660,79.280333333333346,286.80566666666670,279.20500000000004,3.6650000000000000,17.826000000000001,35.741999999999990,5.4266666666666650,321.62166666666667,0.24000000000000016,273.22100000000006
2018-03-07,00:00,66.000,265.51366666666667,94402.766666666663,79.446666666666687,284.27999999999997,277.23533333333330,0.76099999999999979,3.1126666666666667,7.1663333333333350,6.8600000000000012,320.42166666666668,0.24000000000000016,273.21666666666675
